Time,TemperatureF,DewpointF,PressureIn,WindDirection,WindDirectionDegrees,WindSpeedMPH,WindSpeedGustMPH,Humidity,HourlyPrecipIn,Conditions,Clouds,dailyrainin,SoftwareType,DateUTC
2013-07-03 00:03:00,64.8,56.7,30.09,East,90,0.0,0.0,75,0.00,,,0.00,WUHU216HW,2013-07-03 05:03:00,
2013-07-03 00:08:00,64.6,56.5,30.08,East,90,0.0,0.0,75,0.00,,,0.00,WUHU216HW,2013-07-03 05:08:00,
2013-07-03 00:13:00,64.4,56.7,30.08,East,90,0.0,0.0,76,0.00,,,0.00,WUHU216HW,2013-07-03 05:13:00,
2013-07-03 00:18:00,64.4,57.1,30.08,East,90,0.0,0.0,77,0.00,,,0.00,WUHU216HW,2013-07-03 05:18:00,
2013-07-03 00:19:00,64.4,57.1,30.08,East,90,0.0,0.0,77,0.00,,,0.00,WUHU216HW,2013-07-03 05:19:00,
2013-07-03 00:24:00,64.3,56.9,30.08,East,90,0.0,0.0,77,0.00,,,0.00,WUHU216HW,2013-07-03 05:24:00,
2013-07-03 00:29:00,64.1,57.1,30.08,East,90,0.0,0.0,78,0.00,,,0.00,WUHU216HW,2013-07-03 05:29:00,
2013-07-03 00:34:00,64.1,57.1,30.08,East,90,0.0,0.0,78,0.00,,,0.00,WUHU216HW,2013-07-03 05:34:00,
2013-07-03 00:39:00,63.9,56.9,30.08,East,90,0.0,0.0,78,0.00,,,0.00,WUHU216HW,2013-07-03 05:39:00,
2013-07-03 00:44:00,63.7,57.1,30.08,East,90,0.0,0.0,79,0.00,,,0.00,WUHU216HW,2013-07-03 05:44:00,
2013-07-03 00:49:00,63.7,57.1,30.08,East,90,0.0,0.0,79,0.00,,,0.00,WUHU216HW,2013-07-03 05:49:00,
2013-07-03 00:54:00,63.5,56.9,30.07,East,90,0.0,0.0,79,0.00,,,0.00,WUHU216HW,2013-07-03 05:54:00,
2013-07-03 00:55:00,63.5,57.2,30.07,East,90,0.0,0.0,80,0.00,,,0.00,WUHU216HW,2013-07-03 05:55:00,
2013-07-03 00:57:00,63.5,57.2,30.07,East,90,0.0,0.0,80,0.00,,,0.00,WUHU216HW,2013-07-03 05:57:00,
2013-07-03 00:59:00,63.4,56.7,30.07,East,90,0.0,0.0,79,0.00,,,0.00,WUHU216HW,2013-07-03 05:59:00,
2013-07-03 01:02:00,63.4,56.7,30.07,East,90,0.0,0.0,79,0.00,,,0.00,WUHU216HW,2013-07-03 06:02:00,
2013-07-03 01:07:00,63.4,56.7,30.07,East,90,0.0,0.0,79,0.00,,,0.00,WUHU216HW,2013-07-03 06:07:00,
2013-07-03 01:12:00,63.2,56.9,30.07,East,90,0.0,0.0,80,0.00,,,0.00,WUHU216HW,2013-07-03 06:12:00,
2013-07-03 01:13:00,63.2,56.9,30.07,East,90,0.0,0.0,80,0.00,,,0.00,WUHU216HW,2013-07-03 06:13:00,
2013-07-03 01:17:00,63.0,56.7,30.07,East,90,0.0,0.0,80,0.00,,,0.00,WUHU216HW,2013-07-03 06:17:00,
2013-07-03 01:18:00,63.0,56.7,30.07,East,90,0.0,0.0,80,0.00,,,0.00,WUHU216HW,2013-07-03 06:18:00,
2013-07-03 01:23:00,62.8,56.5,30.07,East,90,0.0,0.0,80,0.00,,,0.00,WUHU216HW,2013-07-03 06:23:00,
2013-07-03 01:24:00,62.8,56.5,30.07,East,90,0.0,0.0,80,0.00,,,0.00,WUHU216HW,2013-07-03 06:24:00,
2013-07-03 01:26:00,62.6,56.7,30.07,East,90,0.0,0.0,81,0.00,,,0.00,WUHU216HW,2013-07-03 06:26:00,
2013-07-03 01:32:00,62.6,56.7,30.07,East,90,0.0,0.0,81,0.00,,,0.00,WUHU216HW,2013-07-03 06:32:00,
2013-07-03 01:37:00,62.5,56.5,30.07,East,90,0.0,0.0,81,0.00,,,0.00,WUHU216HW,2013-07-03 06:37:00,
2013-07-03 01:42:00,62.5,56.5,30.07,East,90,0.0,0.0,81,0.00,,,0.00,WUHU216HW,2013-07-03 06:42:00,
2013-07-03 01:43:00,62.3,56.3,30.07,East,90,0.0,0.0,81,0.00,,,0.00,WUHU216HW,2013-07-03 06:43:00,
2013-07-03 01:48:00,62.3,56.3,30.07,East,90,0.0,0.0,81,0.00,,,0.00,WUHU216HW,2013-07-03 06:48:00,
2013-07-03 01:53:00,62.1,56.5,30.07,East,90,0.0,0.0,82,0.00,,,0.00,WUHU216HW,2013-07-03 06:53:00,
2013-07-03 01:55:00,62.1,56.5,30.07,East,90,0.0,0.0,82,0.00,,,0.00,WUHU216HW,2013-07-03 06:55:00,
2013-07-03 02:00:00,62.1,56.5,30.07,East,90,0.0,0.0,82,0.00,,,0.00,WUHU216HW,2013-07-03 07:00:00,
2013-07-03 02:05:00,61.9,56.3,30.07,East,90,0.0,0.0,82,0.00,,,0.00,WUHU216HW,2013-07-03 07:05:00,
2013-07-03 02:10:00,61.7,56.5,30.07,East,90,0.0,0.0,83,0.00,,,0.00,WUHU216HW,2013-07-03 07:10:00,
2013-07-03 02:15:00,61.7,56.5,30.07,East,90,0.0,0.0,83,0.00,,,0.00,WUHU216HW,2013-07-03 07:15:00,
2013-07-03 02:16:00,61.7,56.5,30.07,East,90,0.0,0.0,83,0.00,,,0.00,WUHU216HW,2013-07-03 07:16:00,
2013-07-03 02:21:00,61.6,56.3,30.07,East,90,0.0,0.0,83,0.00,,,0.00,WUHU216HW,2013-07-03 07:21:00,
2013-07-03 02:27:00,61.4,56.2,30.07,East,90,0.0,0.0,83,0.00,,,0.00,WUHU216HW,2013-07-03 07:27:00,
2013-07-03 02:32:00,61.2,56.1,30.07,East,90,0.0,0.0,83,0.00,,,0.00,WUHU216HW,2013-07-03 07:32:00,
2013-07-03 02:37:00,61.2,56.1,30.07,East,90,0.0,0.0,83,0.00,,,0.00,WUHU216HW,2013-07-03 07:37:00,
2013-07-03 02:38:00,61.2,56.1,30.07,East,90,0.0,0.0,83,0.00,,,0.00,WUHU216HW,2013-07-03 07:38:00,
2013-07-03 02:43:00,61.0,55.9,30.07,East,90,0.0,0.0,83,0.00,,,0.00,WUHU216HW,2013-07-03 07:43:00,
2013-07-03 02:48:00,61.0,55.9,30.06,East,90,0.0,0.0,83,0.00,,,0.00,WUHU216HW,2013-07-03 07:48:00,
2013-07-03 02:51:00,61.0,55.9,30.06,East,90,0.0,0.0,83,0.00,,,0.00,WUHU216HW,2013-07-03 07:51:00,
2013-07-03 02:56:00,60.8,55.7,30.06,East,90,0.0,0.0,83,0.00,,,0.00,WUHU216HW,2013-07-03 07:56:00,
2013-07-03 03:01:00,60.8,56.0,30.06,East,90,0.0,0.0,84,0.00,,,0.00,WUHU216HW,2013-07-03 08:01:00,
2013-07-03 03:06:00,60.8,56.0,30.06,East,90,0.0,0.0,84,0.00,,,0.00,WUHU216HW,2013-07-03 08:06:00,
2013-07-03 03:09:00,60.7,55.8,30.06,East,90,0.0,0.0,84,0.00,,,0.00,WUHU216HW,2013-07-03 08:09:00,
2013-07-03 03:14:00,60.5,55.6,30.06,East,90,0.0,0.0,84,0.00,,,0.00,WUHU216HW,2013-07-03 08:14:00,
2013-07-03 03:19:00,60.5,55.6,30.06,East,90,0.0,0.0,84,0.00,,,0.00,WUHU216HW,2013-07-03 08:19:00,
2013-07-03 03:24:00,60.5,55.6,30.06,East,90,0.0,0.0,84,0.00,,,0.00,WUHU216HW,2013-07-03 08:24:00,
2013-07-03 03:29:00,60.1,55.3,30.06,East,90,0.0,0.0,84,0.00,,,0.00,WUHU216HW,2013-07-03 08:29:00,
2013-07-03 03:34:00,60.1,55.3,30.06,East,90,0.0,0.0,84,0.00,,,0.00,WUHU216HW,2013-07-03 08:34:00,
2013-07-03 03:39:00,60.1,55.6,30.06,East,90,0.0,0.0,85,0.00,,,0.00,WUHU216HW,2013-07-03 08:39:00,
2013-07-03 03:40:00,60.1,55.3,30.07,East,90,0.0,0.0,84,0.00,,,0.00,WUHU216HW,2013-07-03 08:40:00,
2013-07-03 03:45:00,60.1,55.6,30.07,East,90,0.0,0.0,85,0.00,,,0.00,WUHU216HW,2013-07-03 08:45:00,
2013-07-03 03:50:00,59.9,55.4,30.06,East,90,0.0,0.0,85,0.00,,,0.00,WUHU216HW,2013-07-03 08:50:00,
2013-07-03 03:54:00,59.9,55.4,30.06,East,90,0.0,0.0,85,0.00,,,0.00,WUHU216HW,2013-07-03 08:54:00,
2013-07-03 03:55:00,59.8,55.3,30.06,East,90,0.0,0.0,85,0.00,,,0.00,WUHU216HW,2013-07-03 08:55:00,
2013-07-03 04:00:00,59.8,55.3,30.06,East,90,0.0,0.0,85,0.00,,,0.00,WUHU216HW,2013-07-03 09:00:00,
2013-07-03 04:05:00,59.6,55.1,30.06,East,90,0.0,0.0,85,0.00,,,0.00,WUHU216HW,2013-07-03 09:05:00,
2013-07-03 04:10:00,59.4,54.9,30.06,East,90,0.0,0.0,85,0.00,,,0.00,WUHU216HW,2013-07-03 09:10:00,
2013-07-03 04:15:00,59.4,54.9,30.06,East,90,0.0,0.0,85,0.00,,,0.00,WUHU216HW,2013-07-03 09:15:00,
2013-07-03 04:21:00,59.4,54.9,30.06,East,90,0.0,0.0,85,0.00,,,0.00,WUHU216HW,2013-07-03 09:21:00,
2013-07-03 04:26:00,59.2,54.7,30.06,East,90,0.0,0.0,85,0.00,,,0.00,WUHU216HW,2013-07-03 09:26:00,
2013-07-03 04:31:00,59.0,54.5,30.06,East,90,0.0,0.0,85,0.00,,,0.00,WUHU216HW,2013-07-03 09:31:00,
2013-07-03 04:37:00,58.9,54.4,30.06,East,90,0.0,0.0,85,0.00,,,0.00,WUHU216HW,2013-07-03 09:37:00,
2013-07-03 04:41:00,58.9,54.4,30.06,East,90,0.0,0.0,85,0.00,,,0.00,WUHU216HW,2013-07-03 09:41:00,
2013-07-03 04:46:00,58.9,54.7,30.06,East,90,0.0,0.0,86,0.00,,,0.00,WUHU216HW,2013-07-03 09:46:00,
2013-07-03 04:49:00,58.7,54.6,30.06,East,90,0.0,0.0,86,0.00,,,0.00,WUHU216HW,2013-07-03 09:49:00,
2013-07-03 04:50:00,58.7,54.6,30.06,East,90,0.0,0.0,86,0.00,,,0.00,WUHU216HW,2013-07-03 09:50:00,
2013-07-03 04:56:00,58.7,54.6,30.06,East,90,0.0,0.0,86,0.00,,,0.00,WUHU216HW,2013-07-03 09:56:00,
2013-07-03 05:01:00,58.7,54.6,30.06,East,90,0.0,0.0,86,0.00,,,0.00,WUHU216HW,2013-07-03 10:01:00,
2013-07-03 05:04:00,58.5,54.4,30.06,East,90,0.0,0.0,86,0.00,,,0.00,WUHU216HW,2013-07-03 10:04:00,
2013-07-03 05:05:00,58.5,54.4,30.06,East,90,0.0,0.0,86,0.00,,,0.00,WUHU216HW,2013-07-03 10:05:00,
2013-07-03 05:10:00,58.5,54.4,30.06,East,90,0.0,0.0,86,0.00,,,0.00,WUHU216HW,2013-07-03 10:10:00,
2013-07-03 05:15:00,58.5,54.4,30.06,East,90,0.0,0.0,86,0.00,,,0.00,WUHU216HW,2013-07-03 10:15:00,
2013-07-03 05:20:00,58.3,54.2,30.06,East,90,0.0,0.0,86,0.00,,,0.00,WUHU216HW,2013-07-03 10:20:00,
2013-07-03 05:25:00,58.3,54.2,30.06,East,90,0.0,0.0,86,0.00,,,0.00,WUHU216HW,2013-07-03 10:25:00,
2013-07-03 05:30:00,58.3,54.5,30.06,East,90,0.0,0.0,87,0.00,,,0.00,WUHU216HW,2013-07-03 10:30:00,
2013-07-03 05:31:00,58.3,54.2,30.06,East,90,0.0,0.0,86,0.00,,,0.00,WUHU216HW,2013-07-03 10:31:00,
2013-07-03 05:36:00,58.1,54.3,30.06,East,90,0.0,0.0,87,0.00,,,0.00,WUHU216HW,2013-07-03 10:36:00,
2013-07-03 05:41:00,58.1,54.3,30.06,East,90,0.0,0.0,87,0.00,,,0.00,WUHU216HW,2013-07-03 10:41:00,
2013-07-03 05:46:00,58.0,54.1,30.06,East,90,0.0,0.0,87,0.00,,,0.00,WUHU216HW,2013-07-03 10:46:00,
2013-07-03 05:49:00,58.0,54.1,30.06,East,90,0.0,0.0,87,0.00,,,0.00,WUHU216HW,2013-07-03 10:49:00,
2013-07-03 05:54:00,58.0,54.1,30.06,East,90,0.0,0.0,87,0.00,,,0.00,WUHU216HW,2013-07-03 10:54:00,
2013-07-03 05:55:00,58.0,54.1,30.06,East,90,0.0,0.0,87,0.00,,,0.00,WUHU216HW,2013-07-03 10:55:00,
2013-07-03 05:57:00,58.0,54.1,30.06,East,90,0.0,0.0,87,0.00,,,0.00,WUHU216HW,2013-07-03 10:57:00,
2013-07-03 06:02:00,58.0,54.1,30.07,East,90,0.0,0.0,87,0.00,,,0.00,WUHU216HW,2013-07-03 11:02:00,
2013-07-03 06:07:00,58.0,54.1,30.07,East,90,0.0,0.0,87,0.00,,,0.00,WUHU216HW,2013-07-03 11:07:00,
2013-07-03 06:09:00,58.0,54.1,30.07,East,90,0.0,0.0,87,0.00,,,0.00,WUHU216HW,2013-07-03 11:09:00,
2013-07-03 06:15:00,58.0,54.1,30.07,East,90,0.0,0.0,87,0.00,,,0.00,WUHU216HW,2013-07-03 11:15:00,
2013-07-03 06:19:00,58.0,54.1,30.07,East,90,0.0,0.0,87,0.00,,,0.00,WUHU216HW,2013-07-03 11:19:00,
2013-07-03 06:23:00,58.0,54.1,30.07,East,90,0.0,0.0,87,0.00,,,0.00,WUHU216HW,2013-07-03 11:23:00,
2013-07-03 06:25:00,58.0,54.1,30.07,East,90,0.0,0.0,87,0.00,,,0.00,WUHU216HW,2013-07-03 11:25:00,
2013-07-03 06:30:00,58.1,54.6,30.07,East,90,0.0,0.0,88,0.00,,,0.00,WUHU216HW,2013-07-03 11:30:00,
2013-07-03 06:35:00,58.1,54.6,30.07,East,90,0.0,0.0,88,0.00,,,0.00,WUHU216HW,2013-07-03 11:35:00,
2013-07-03 06:41:00,58.3,54.8,30.07,ESE,113,0.0,0.0,88,0.00,,,0.00,WUHU216HW,2013-07-03 11:41:00,
2013-07-03 06:46:00,58.7,55.2,30.07,SE,135,0.9,1.4,88,0.00,,,0.00,WUHU216HW,2013-07-03 11:46:00,
2013-07-03 06:51:00,58.7,55.2,30.07,SE,135,0.7,1.7,88,0.00,,,0.00,WUHU216HW,2013-07-03 11:51:00,
2013-07-03 06:56:00,59.0,55.5,30.07,SE,135,0.0,1.7,88,0.00,,,0.00,WUHU216HW,2013-07-03 11:56:00,
2013-07-03 06:59:00,59.2,56.0,30.07,SE,135,0.0,1.7,89,0.00,,,0.00,WUHU216HW,2013-07-03 11:59:00,
2013-07-03 07:02:00,59.2,56.0,30.07,SE,128,0.3,0.6,89,0.00,,,0.00,WUHU216HW,2013-07-03 12:02:00,
2013-07-03 07:07:00,59.6,56.1,30.07,ESE,113,0.0,0.6,88,0.00,,,0.00,WUHU216HW,2013-07-03 12:07:00,
2013-07-03 07:12:00,59.9,56.4,30.07,SE,135,1.2,1.7,88,0.00,,,0.00,WUHU216HW,2013-07-03 12:12:00,
2013-07-03 07:16:00,60.1,56.6,30.07,SE,135,1.2,2.5,88,0.00,,,0.00,WUHU216HW,2013-07-03 12:16:00,
2013-07-03 07:20:00,60.1,56.3,30.07,SE,144,1.6,3.2,87,0.00,,,0.00,WUHU216HW,2013-07-03 12:20:00,
2013-07-03 07:25:00,60.5,56.6,30.07,SE,135,2.2,3.2,87,0.00,,,0.00,WUHU216HW,2013-07-03 12:25:00,
2013-07-03 07:30:00,60.8,56.3,30.07,SE,135,1.2,4.0,85,0.00,,,0.00,WUHU216HW,2013-07-03 12:30:00,
2013-07-03 07:35:00,61.4,56.5,30.07,SE,135,0.3,4.0,84,0.00,,,0.00,WUHU216HW,2013-07-03 12:35:00,
2013-07-03 07:40:00,62.1,56.9,30.08,ESE,113,0.0,1.7,83,0.00,,,0.00,WUHU216HW,2013-07-03 12:40:00,
2013-07-03 07:45:00,62.5,57.3,30.08,ESE,113,0.0,1.4,83,0.00,,,0.00,WUHU216HW,2013-07-03 12:45:00,
2013-07-03 07:48:00,62.6,57.3,30.08,ESE,113,0.0,0.0,83,0.00,,,0.00,WUHU216HW,2013-07-03 12:48:00,
2013-07-03 07:53:00,63.0,57.7,30.07,ESE,113,0.0,0.0,83,0.00,,,0.00,WUHU216HW,2013-07-03 12:53:00,
2013-07-03 07:58:00,63.5,58.0,30.08,ESE,113,0.0,0.6,82,0.00,,,0.00,WUHU216HW,2013-07-03 12:58:00,
2013-07-03 08:03:00,63.9,58.3,30.08,SW,225,0.0,0.6,82,0.00,,,0.00,WUHU216HW,2013-07-03 13:03:00,
2013-07-03 08:08:00,64.3,58.7,30.08,ESE,113,0.0,0.0,82,0.00,,,0.00,WUHU216HW,2013-07-03 13:08:00,
2013-07-03 08:13:00,64.6,59.1,30.08,SW,225,0.2,0.3,82,0.00,,,0.00,WUHU216HW,2013-07-03 13:13:00,
2013-07-03 08:18:00,65.2,59.2,30.08,ESE,113,0.4,1.4,81,0.00,,,0.00,WUHU216HW,2013-07-03 13:18:00,
2013-07-03 08:23:00,65.7,59.8,30.08,NNW,338,0.0,1.4,81,0.00,,,0.00,WUHU216HW,2013-07-03 13:23:00,
2013-07-03 08:25:00,65.9,59.6,30.08,NNW,338,0.0,1.4,80,0.00,,,0.00,WUHU216HW,2013-07-03 13:25:00,
2013-07-03 08:30:00,66.2,59.2,30.08,NNW,338,0.0,0.0,78,0.00,,,0.00,WUHU216HW,2013-07-03 13:30:00,
2013-07-03 08:35:00,66.6,59.6,30.08,ESE,113,0.0,1.1,78,0.00,,,0.00,WUHU216HW,2013-07-03 13:35:00,
2013-07-03 08:37:00,66.8,59.3,30.08,East,90,0.0,1.1,77,0.00,,,0.00,WUHU216HW,2013-07-03 13:37:00,
2013-07-03 08:42:00,67.3,59.9,30.09,ESE,113,1.2,1.7,77,0.00,,,0.00,WUHU216HW,2013-07-03 13:42:00,
2013-07-03 08:47:00,67.9,59.7,30.09,SSE,158,0.4,1.7,75,0.00,,,0.00,WUHU216HW,2013-07-03 13:47:00,
2013-07-03 08:53:00,68.6,59.9,30.08,North,0,1.2,1.7,74,0.00,,,0.00,WUHU216HW,2013-07-03 13:53:00,
2013-07-03 08:58:00,69.1,59.7,30.09,NNW,338,0.0,1.7,72,0.00,,,0.00,WUHU216HW,2013-07-03 13:58:00,
2013-07-03 09:03:00,69.7,59.1,30.08,NW,315,0.0,0.0,69,0.00,,,0.00,WUHU216HW,2013-07-03 14:03:00,
2013-07-03 09:07:00,70.0,59.0,30.08,NNW,338,0.0,0.0,68,0.00,,,0.00,WUHU216HW,2013-07-03 14:07:00,
2013-07-03 09:12:00,70.4,59.7,30.08,NW,315,0.8,1.4,69,0.00,,,0.00,WUHU216HW,2013-07-03 14:12:00,
2013-07-03 09:17:00,70.7,59.2,30.08,NNW,338,0.6,1.7,67,0.00,,,0.00,WUHU216HW,2013-07-03 14:17:00,
2013-07-03 09:22:00,71.1,60.0,30.08,NNW,338,0.0,1.7,68,0.00,,,0.00,WUHU216HW,2013-07-03 14:22:00,
2013-07-03 09:27:00,71.3,59.3,30.08,SSW,203,0.0,0.0,66,0.00,,,0.00,WUHU216HW,2013-07-03 14:27:00,
2013-07-03 09:30:00,71.6,59.7,30.08,ESE,113,1.0,1.4,66,0.00,,,0.00,WUHU216HW,2013-07-03 14:30:00,
2013-07-03 09:35:00,72.2,60.6,30.07,ESE,110,1.6,3.2,67,0.00,,,0.00,WUHU216HW,2013-07-03 14:35:00,
2013-07-03 09:38:00,72.4,60.3,30.07,NE,45,0.0,3.2,66,0.00,,,0.00,WUHU216HW,2013-07-03 14:38:00,
2013-07-03 09:42:00,72.7,60.2,30.07,NNW,338,0.0,3.2,65,0.00,,,0.00,WUHU216HW,2013-07-03 14:42:00,
2013-07-03 09:47:00,73.1,60.1,30.07,NW,315,0.8,1.4,64,0.00,,,0.00,WUHU216HW,2013-07-03 14:47:00,
2013-07-03 09:51:00,73.3,60.3,30.08,NW,315,0.2,1.4,64,0.00,,,0.00,WUHU216HW,2013-07-03 14:51:00,
2013-07-03 09:56:00,73.4,58.1,30.07,NW,315,1.4,2.1,59,0.00,,,0.00,WUHU216HW,2013-07-03 14:56:00,
2013-07-03 09:58:00,73.4,59.1,30.07,NW,316,0.9,2.1,61,0.00,,,0.00,WUHU216HW,2013-07-03 14:58:00,
2013-07-03 10:03:00,73.8,59.5,30.07,WNW,286,0.4,2.1,61,0.00,,,0.00,WUHU216HW,2013-07-03 15:03:00,
2013-07-03 10:04:00,73.8,58.1,30.07,NW,315,0.0,2.1,58,0.00,,,0.00,WUHU216HW,2013-07-03 15:04:00,
2013-07-03 10:09:00,74.2,57.4,30.07,WNW,293,0.2,1.1,56,0.00,,,0.00,WUHU216HW,2013-07-03 15:09:00,
2013-07-03 10:14:00,74.5,55.7,30.07,WNW,301,0.6,1.1,52,0.00,,,0.00,WUHU216HW,2013-07-03 15:14:00,
2013-07-03 10:15:00,74.7,55.9,30.07,NW,315,0.2,1.1,52,0.00,,,0.00,WUHU216HW,2013-07-03 15:15:00,
2013-07-03 10:20:00,74.9,56.6,30.07,WNW,291,0.7,1.7,53,0.00,,,0.00,WUHU216HW,2013-07-03 15:20:00,
2013-07-03 10:25:00,75.2,55.4,30.07,NW,314,0.6,1.7,50,0.00,,,0.00,WUHU216HW,2013-07-03 15:25:00,
2013-07-03 10:28:00,75.2,54.2,30.07,NW,321,0.4,1.7,48,0.00,,,0.00,WUHU216HW,2013-07-03 15:28:00,
2013-07-03 10:33:00,75.6,55.2,30.07,WNW,293,0.0,1.4,49,0.00,,,0.00,WUHU216HW,2013-07-03 15:33:00,
2013-07-03 10:38:00,76.0,53.6,30.07,NNE,23,0.0,0.0,46,0.00,,,0.00,WUHU216HW,2013-07-03 15:38:00,
2013-07-03 10:40:00,76.1,54.5,30.07,NE,45,0.4,0.6,47,0.00,,,0.00,WUHU216HW,2013-07-03 15:40:00,
2013-07-03 10:45:00,76.5,56.0,30.07,East,92,2.1,4.3,49,0.00,,,0.00,WUHU216HW,2013-07-03 15:45:00,
2013-07-03 10:50:00,77.0,56.4,30.07,ESE,113,3.7,5.4,49,0.00,,,0.00,WUHU216HW,2013-07-03 15:50:00,
2013-07-03 10:52:00,77.0,57.1,30.07,ESE,104,3.2,5.4,50,0.00,,,0.00,WUHU216HW,2013-07-03 15:52:00,
2013-07-03 10:57:00,77.4,56.8,30.07,ENE,68,0.5,5.4,49,0.00,,,0.00,WUHU216HW,2013-07-03 15:57:00,
2013-07-03 11:02:00,77.8,56.5,30.07,East,88,2.1,5.4,48,0.00,,,0.00,WUHU216HW,2013-07-03 16:02:00,
2013-07-03 11:07:00,78.1,56.8,30.07,ESE,102,1.5,5.4,48,0.00,,,0.00,WUHU216HW,2013-07-03 16:07:00,
2013-07-03 11:12:00,78.5,57.2,30.07,ENE,68,1.5,3.5,48,0.00,,,0.00,WUHU216HW,2013-07-03 16:12:00,
2013-07-03 11:18:00,78.8,57.4,30.07,ENE,68,2.8,4.0,48,0.00,,,0.00,WUHU216HW,2013-07-03 16:18:00,
2013-07-03 11:23:00,79.2,57.2,30.07,East,90,1.4,4.0,47,0.00,,,0.00,WUHU216HW,2013-07-03 16:23:00,
2013-07-03 11:28:00,79.0,54.5,30.07,NNE,13,0.7,5.4,43,0.00,,,0.00,WUHU216HW,2013-07-03 16:28:00,
2013-07-03 11:33:00,78.8,55.6,30.06,ESE,113,2.8,5.4,45,0.00,,,0.00,WUHU216HW,2013-07-03 16:33:00,
2013-07-03 11:38:00,79.0,56.4,30.06,NE,45,0.0,4.9,46,0.00,,,0.00,WUHU216HW,2013-07-03 16:38:00,
2013-07-03 11:43:00,79.2,55.4,30.06,NE,45,1.3,3.5,44,0.00,,,0.00,WUHU216HW,2013-07-03 16:43:00,
2013-07-03 11:48:00,79.2,55.4,30.06,North,11,0.9,5.4,44,0.00,,,0.00,WUHU216HW,2013-07-03 16:48:00,
2013-07-03 11:54:00,79.4,55.5,30.05,ESE,112,1.8,5.4,44,0.00,,,0.00,WUHU216HW,2013-07-03 16:54:00,
2013-07-03 11:59:00,79.7,55.2,30.06,East,96,1.7,5.4,43,0.00,,,0.00,WUHU216HW,2013-07-03 16:59:00,
2013-07-03 12:04:00,79.6,55.6,30.06,North,0,0.8,4.9,44,0.00,,,0.00,WUHU216HW,2013-07-03 17:04:00,
2013-07-03 12:09:00,79.7,55.8,30.06,North,359,0.5,2.9,44,0.00,,,0.00,WUHU216HW,2013-07-03 17:09:00,
2013-07-03 12:14:00,79.9,56.0,30.05,ESE,113,1.8,2.9,44,0.00,,,0.00,WUHU216HW,2013-07-03 17:14:00,
2013-07-03 12:20:00,80.3,54.5,30.05,SE,142,3.8,7.8,41,0.00,,,0.00,WUHU216HW,2013-07-03 17:20:00,
2013-07-03 12:25:00,80.6,55.5,30.05,East,80,2.3,7.8,42,0.00,,,0.00,WUHU216HW,2013-07-03 17:25:00,
2013-07-03 12:30:00,80.8,55.5,30.05,North,0,0.8,6.4,42,0.00,,,0.00,WUHU216HW,2013-07-03 17:30:00,
2013-07-03 12:35:00,80.8,55.5,30.05,North,357,0.3,6.4,42,0.00,,,0.00,WUHU216HW,2013-07-03 17:35:00,
2013-07-03 12:40:00,80.6,55.5,30.05,NE,53,1.8,5.4,42,0.00,,,0.00,WUHU216HW,2013-07-03 17:40:00,
2013-07-03 12:45:00,80.5,55.3,30.05,ENE,73,2.4,5.4,42,0.00,,,0.00,WUHU216HW,2013-07-03 17:45:00,
2013-07-03 12:51:00,80.6,56.0,30.05,ENE,69,1.2,4.6,43,0.00,,,0.00,WUHU216HW,2013-07-03 17:51:00,
2013-07-03 12:56:00,80.8,55.5,30.05,East,83,0.9,2.9,42,0.00,,,0.00,WUHU216HW,2013-07-03 17:56:00,
2013-07-03 13:01:00,80.8,55.5,30.04,ESE,113,2.8,5.4,42,0.00,,,0.00,WUHU216HW,2013-07-03 18:01:00,
2013-07-03 13:06:00,80.8,55.5,30.04,NE,51,0.9,5.4,42,0.00,,,0.00,WUHU216HW,2013-07-03 18:06:00,
2013-07-03 13:11:00,81.0,55.1,30.04,SE,135,2.8,8.1,41,0.00,,,0.00,WUHU216HW,2013-07-03 18:11:00,
2013-07-03 13:16:00,81.0,54.6,30.04,SE,135,2.4,8.1,40,0.00,,,0.00,WUHU216HW,2013-07-03 18:16:00,
2013-07-03 13:21:00,81.2,54.6,30.04,ESE,113,3.7,5.7,40,0.00,,,0.00,WUHU216HW,2013-07-03 18:21:00,
2013-07-03 13:26:00,81.2,54.6,30.04,SE,135,2.8,6.0,40,0.00,,,0.00,WUHU216HW,2013-07-03 18:26:00,
2013-07-03 13:31:00,81.4,54.1,30.04,East,81,3.9,8.9,39,0.00,,,0.00,WUHU216HW,2013-07-03 18:31:00,
2013-07-03 13:36:00,81.4,53.3,30.04,SE,135,5.9,12.9,38,0.00,,,0.00,WUHU216HW,2013-07-03 18:36:00,
2013-07-03 13:41:00,81.4,52.5,30.04,SE,135,6.6,12.9,37,0.00,,,0.00,WUHU216HW,2013-07-03 18:41:00,
2013-07-03 13:46:00,81.4,54.1,30.04,SE,134,2.6,10.3,39,0.00,,,0.00,WUHU216HW,2013-07-03 18:46:00,
2013-07-03 13:52:00,81.5,54.2,30.04,East,90,1.2,9.5,39,0.00,,,0.00,WUHU216HW,2013-07-03 18:52:00,
2013-07-03 13:57:00,81.5,55.0,30.04,NE,47,0.8,4.0,40,0.00,,,0.00,WUHU216HW,2013-07-03 18:57:00,
2013-07-03 14:02:00,81.7,55.2,30.04,South,169,1.5,3.5,40,0.00,,,0.00,WUHU216HW,2013-07-03 19:02:00,
2013-07-03 14:07:00,81.9,54.6,30.04,South,184,1.5,7.2,39,0.00,,,0.00,WUHU216HW,2013-07-03 19:07:00,
2013-07-03 14:12:00,81.9,54.6,30.03,NNE,23,1.8,7.2,39,0.00,,,0.00,WUHU216HW,2013-07-03 19:12:00,
2013-07-03 14:17:00,81.7,54.4,30.03,SE,135,5.2,7.5,39,0.00,,,0.00,WUHU216HW,2013-07-03 19:17:00,
2013-07-03 14:23:00,82.1,56.1,30.03,ESE,114,1.9,7.5,41,0.00,,,0.00,WUHU216HW,2013-07-03 19:23:00,
2013-07-03 14:28:00,81.9,54.6,30.03,NNE,13,0.8,5.4,39,0.00,,,0.00,WUHU216HW,2013-07-03 19:28:00,
2013-07-03 14:33:00,81.5,55.0,30.03,WNW,301,0.7,3.5,40,0.00,,,0.00,WUHU216HW,2013-07-03 19:33:00,
2013-07-03 14:38:00,81.5,55.0,30.03,North,0,0.4,2.1,40,0.00,,,0.00,WUHU216HW,2013-07-03 19:38:00,
2013-07-03 14:43:00,81.4,55.4,30.02,NNW,338,1.0,2.9,41,0.00,,,0.00,WUHU216HW,2013-07-03 19:43:00,
2013-07-03 14:49:00,81.4,55.4,30.03,ENE,68,0.5,3.5,41,0.00,,,0.00,WUHU216HW,2013-07-03 19:49:00,
2013-07-03 14:54:00,81.4,54.8,30.02,NNE,23,2.8,5.4,40,0.00,,,0.00,WUHU216HW,2013-07-03 19:54:00,
2013-07-03 14:59:00,81.4,54.8,30.02,North,0,0.8,5.4,40,0.00,,,0.00,WUHU216HW,2013-07-03 19:59:00,
2013-07-03 15:04:00,81.4,54.8,30.02,SE,135,3.4,4.9,40,0.00,,,0.00,WUHU216HW,2013-07-03 20:04:00,
2013-07-03 15:09:00,81.5,54.2,30.02,SE,135,2.4,8.1,39,0.00,,,0.00,WUHU216HW,2013-07-03 20:09:00,
2013-07-03 15:15:00,81.5,54.2,30.02,SSE,165,1.2,8.1,39,0.00,,,0.00,WUHU216HW,2013-07-03 20:15:00,
2013-07-03 15:20:00,81.5,54.2,30.01,NE,39,1.3,5.7,39,0.00,,,0.00,WUHU216HW,2013-07-03 20:20:00,
2013-07-03 15:25:00,81.7,54.4,30.01,SE,131,2.3,6.0,39,0.00,,,0.00,WUHU216HW,2013-07-03 20:25:00,
2013-07-03 15:30:00,81.7,53.6,30.01,NNE,23,0.9,6.0,38,0.00,,,0.00,WUHU216HW,2013-07-03 20:30:00,
2013-07-03 15:35:00,81.5,55.0,30.01,NNW,338,1.2,3.2,40,0.00,,,0.00,WUHU216HW,2013-07-03 20:35:00,
2013-07-03 15:40:00,81.5,55.0,30.01,East,90,0.4,2.1,40,0.00,,,0.00,WUHU216HW,2013-07-03 20:40:00,
2013-07-03 15:46:00,81.5,54.2,30.01,NW,315,2.3,4.9,39,0.00,,,0.00,WUHU216HW,2013-07-03 20:46:00,
2013-07-03 15:51:00,81.4,54.1,30.01,NNW,333,0.6,4.9,39,0.00,,,0.00,WUHU216HW,2013-07-03 20:51:00,
2013-07-03 15:56:00,81.2,53.9,30.01,NW,326,1.5,3.5,39,0.00,,,0.00,WUHU216HW,2013-07-03 20:56:00,
2013-07-03 16:01:00,81.0,54.6,30.01,North,0,0.4,3.5,40,0.00,,,0.00,WUHU216HW,2013-07-03 21:01:00,
2013-07-03 16:06:00,81.0,54.6,30.01,NNW,338,0.4,1.1,40,0.00,,,0.00,WUHU216HW,2013-07-03 21:06:00,
2013-07-03 16:12:00,81.0,54.6,30.01,ENE,68,1.4,2.1,40,0.00,,,0.00,WUHU216HW,2013-07-03 21:12:00,
2013-07-03 16:17:00,80.8,55.0,30.01,NE,46,0.4,2.1,41,0.00,,,0.00,WUHU216HW,2013-07-03 21:17:00,
2013-07-03 16:22:00,81.0,55.1,30.01,ENE,68,0.0,5.4,41,0.00,,,0.00,WUHU216HW,2013-07-03 21:22:00,
2013-07-03 16:27:00,80.8,54.4,30.01,NW,316,1.3,5.4,40,0.00,,,0.00,WUHU216HW,2013-07-03 21:27:00,
2013-07-03 16:32:00,80.6,53.4,30.01,NW,322,1.3,4.0,39,0.00,,,0.00,WUHU216HW,2013-07-03 21:32:00,
2013-07-03 16:37:00,80.6,54.2,30.01,NW,315,1.4,4.0,40,0.00,,,0.00,WUHU216HW,2013-07-03 21:37:00,
2013-07-03 16:42:00,80.6,54.2,30.00,NW,315,1.8,4.0,40,0.00,,,0.00,WUHU216HW,2013-07-03 21:42:00,
2013-07-03 16:47:00,80.6,54.2,30.00,NNE,23,0.8,2.9,40,0.00,,,0.00,WUHU216HW,2013-07-03 21:47:00,
2013-07-03 16:52:00,80.8,55.0,30.01,NW,315,0.3,1.7,41,0.00,,,0.00,WUHU216HW,2013-07-03 21:52:00,
2013-07-03 16:58:00,80.8,54.4,30.01,NE,42,0.7,5.4,40,0.00,,,0.00,WUHU216HW,2013-07-03 21:58:00,
2013-07-03 17:03:00,80.6,54.2,30.00,NE,45,2.0,5.4,40,0.00,,,0.00,WUHU216HW,2013-07-03 22:03:00,
2013-07-03 17:08:00,80.6,54.2,30.00,NW,315,1.8,4.0,40,0.00,,,0.00,WUHU216HW,2013-07-03 22:08:00,
2013-07-03 17:13:00,80.6,53.4,30.00,North,0,0.0,2.9,39,0.00,,,0.00,WUHU216HW,2013-07-03 22:13:00,
2013-07-03 17:18:00,80.5,53.3,30.00,NE,51,1.2,2.9,39,0.00,,,0.00,WUHU216HW,2013-07-03 22:18:00,
2013-07-03 17:23:00,80.3,53.8,30.00,NE,45,0.3,2.9,40,0.00,,,0.00,WUHU216HW,2013-07-03 22:23:00,
2013-07-03 17:28:00,80.1,52.9,30.00,East,89,0.4,3.5,39,0.00,,,0.00,WUHU216HW,2013-07-03 22:28:00,
2013-07-03 17:34:00,80.1,53.7,29.99,ENE,66,1.3,5.7,40,0.00,,,0.00,WUHU216HW,2013-07-03 22:34:00,
2013-07-03 17:39:00,79.9,52.7,29.99,SE,142,0.6,5.7,39,0.00,,,0.00,WUHU216HW,2013-07-03 22:39:00,
2013-07-03 17:44:00,79.9,52.7,29.99,WNW,293,1.4,2.5,39,0.00,,,0.00,WUHU216HW,2013-07-03 22:44:00,
2013-07-03 17:50:00,79.9,52.7,29.99,East,79,1.1,4.0,39,0.00,,,0.00,WUHU216HW,2013-07-03 22:50:00,
2013-07-03 17:54:00,79.7,52.6,29.99,ENE,67,1.6,6.0,39,0.00,,,0.00,WUHU216HW,2013-07-03 22:54:00,
2013-07-03 18:00:00,79.7,52.6,29.99,SE,135,1.0,6.0,39,0.00,,,0.00,WUHU216HW,2013-07-03 23:00:00,
2013-07-03 18:05:00,79.7,52.6,29.99,ENE,68,0.4,2.9,39,0.00,,,0.00,WUHU216HW,2013-07-03 23:05:00,
2013-07-03 18:10:00,79.6,52.5,29.99,East,87,0.6,2.5,39,0.00,,,0.00,WUHU216HW,2013-07-03 23:10:00,
2013-07-03 18:15:00,79.6,52.5,29.99,NNE,23,1.0,2.5,39,0.00,,,0.00,WUHU216HW,2013-07-03 23:15:00,
2013-07-03 18:21:00,79.4,52.3,29.99,ENE,68,1.4,2.5,39,0.00,,,0.00,WUHU216HW,2013-07-03 23:21:00,
2013-07-03 18:26:00,79.2,52.1,29.99,East,94,0.9,3.5,39,0.00,,,0.00,WUHU216HW,2013-07-03 23:26:00,
2013-07-03 18:31:00,79.2,52.9,29.98,ENE,68,1.2,3.5,40,0.00,,,0.00,WUHU216HW,2013-07-03 23:31:00,
2013-07-03 18:37:00,79.4,53.0,29.99,NE,45,0.0,2.5,40,0.00,,,0.00,WUHU216HW,2013-07-03 23:37:00,
2013-07-03 18:42:00,79.2,52.9,29.99,NE,45,1.2,1.7,40,0.00,,,0.00,WUHU216HW,2013-07-03 23:42:00,
2013-07-03 18:47:00,79.2,52.1,29.99,NE,48,0.5,2.5,39,0.00,,,0.00,WUHU216HW,2013-07-03 23:47:00,
2013-07-03 18:52:00,79.0,52.8,29.98,ESE,103,1.0,2.5,40,0.00,,,0.00,WUHU216HW,2013-07-03 23:52:00,
2013-07-03 18:57:00,79.0,51.9,29.99,ESE,113,0.4,2.5,39,0.00,,,0.00,WUHU216HW,2013-07-03 23:57:00,
2013-07-03 19:02:00,78.8,52.6,29.98,NNE,23,0.4,1.7,40,0.00,,,0.00,WUHU216HW,2013-07-04 00:02:00,
2013-07-03 19:07:00,78.8,52.6,29.98,NNE,23,0.0,0.6,40,0.00,,,0.00,WUHU216HW,2013-07-04 00:07:00,
2013-07-03 19:13:00,78.8,52.6,29.98,ENE,68,1.2,2.9,40,0.00,,,0.00,WUHU216HW,2013-07-04 00:13:00,
2013-07-03 19:18:00,78.7,52.4,29.98,East,98,0.3,2.9,40,0.00,,,0.00,WUHU216HW,2013-07-04 00:18:00,
2013-07-03 19:23:00,78.5,51.5,29.98,East,90,1.0,2.9,39,0.00,,,0.00,WUHU216HW,2013-07-04 00:23:00,
2013-07-03 19:28:00,78.5,51.5,29.98,NE,53,0.5,2.9,39,0.00,,,0.00,WUHU216HW,2013-07-04 00:28:00,
2013-07-03 19:33:00,78.5,51.5,29.98,ENE,68,0.4,2.9,39,0.00,,,0.00,WUHU216HW,2013-07-04 00:33:00,
2013-07-03 19:38:00,78.5,51.5,29.98,East,84,0.6,1.7,39,0.00,,,0.00,WUHU216HW,2013-07-04 00:38:00,
2013-07-03 19:43:00,78.3,51.3,29.98,ESE,113,0.4,1.7,39,0.00,,,0.00,WUHU216HW,2013-07-04 00:43:00,
2013-07-03 19:48:00,78.3,51.3,29.98,ESE,108,0.8,2.9,39,0.00,,,0.00,WUHU216HW,2013-07-04 00:48:00,
2013-07-03 19:53:00,78.3,51.3,29.98,NE,47,0.8,4.9,39,0.00,,,0.00,WUHU216HW,2013-07-04 00:53:00,
2013-07-03 19:58:00,78.1,50.4,29.98,East,90,1.4,4.9,38,0.00,,,0.00,WUHU216HW,2013-07-04 00:58:00,
2013-07-03 20:03:00,77.9,51.0,29.98,ESE,113,0.8,2.5,39,0.00,,,0.00,WUHU216HW,2013-07-04 01:03:00,
2013-07-03 20:08:00,77.9,51.0,29.98,ENE,68,0.4,1.4,39,0.00,,,0.00,WUHU216HW,2013-07-04 01:08:00,
2013-07-03 20:14:00,77.6,50.7,29.98,East,90,0.8,1.1,39,0.00,,,0.00,WUHU216HW,2013-07-04 01:14:00,
2013-07-03 20:19:00,77.4,50.5,29.98,East,90,0.0,1.4,39,0.00,,,0.00,WUHU216HW,2013-07-04 01:19:00,
2013-07-03 20:24:00,77.2,51.1,29.97,ESE,113,0.4,1.4,40,0.00,,,0.00,WUHU216HW,2013-07-04 01:24:00,
2013-07-03 20:29:00,77.0,50.9,29.97,ESE,113,0.2,0.6,40,0.00,,,0.00,WUHU216HW,2013-07-04 01:29:00,
2013-07-03 20:35:00,76.7,51.2,29.97,ESE,113,0.0,0.6,41,0.00,,,0.00,WUHU216HW,2013-07-04 01:35:00,
2013-07-03 20:40:00,76.5,51.0,29.98,East,90,0.3,0.6,41,0.00,,,0.00,WUHU216HW,2013-07-04 01:40:00,
2013-07-03 20:45:00,76.3,51.5,29.97,East,90,0.0,0.6,42,0.00,,,0.00,WUHU216HW,2013-07-04 01:45:00,
2013-07-03 20:50:00,76.1,51.9,29.97,East,90,0.0,0.0,43,0.00,,,0.00,WUHU216HW,2013-07-04 01:50:00,
2013-07-03 20:55:00,75.8,51.7,29.97,East,90,0.0,0.0,43,0.00,,,0.00,WUHU216HW,2013-07-04 01:55:00,
2013-07-03 21:00:00,75.4,51.9,29.97,East,90,0.0,0.0,44,0.00,,,0.00,WUHU216HW,2013-07-04 02:00:00,
2013-07-03 21:05:00,75.1,52.2,29.97,East,90,0.0,0.0,45,0.00,,,0.00,WUHU216HW,2013-07-04 02:05:00,
2013-07-03 21:10:00,74.7,52.5,29.97,SE,135,0.4,0.6,46,0.00,,,0.00,WUHU216HW,2013-07-04 02:10:00,
2013-07-03 21:15:00,74.5,52.9,29.98,SE,135,0.2,0.6,47,0.00,,,0.00,WUHU216HW,2013-07-04 02:15:00,
2013-07-03 21:21:00,74.2,53.2,29.97,SE,135,0.0,0.6,48,0.00,,,0.00,WUHU216HW,2013-07-04 02:21:00,
2013-07-03 21:26:00,73.8,53.4,29.98,SE,135,0.0,0.6,49,0.00,,,0.00,WUHU216HW,2013-07-04 02:26:00,
2013-07-03 21:31:00,73.4,53.0,29.98,SE,135,0.0,0.0,49,0.00,,,0.00,WUHU216HW,2013-07-04 02:31:00,
2013-07-03 21:36:00,73.1,53.3,29.98,SE,135,0.0,0.0,50,0.00,,,0.00,WUHU216HW,2013-07-04 02:36:00,
2013-07-03 21:41:00,72.5,52.8,29.98,SE,135,0.0,0.0,50,0.00,,,0.00,WUHU216HW,2013-07-04 02:41:00,
2013-07-03 21:47:00,72.2,52.5,29.98,SE,135,0.0,0.0,50,0.00,,,0.00,WUHU216HW,2013-07-04 02:47:00,
2013-07-03 21:52:00,71.8,52.2,29.98,SE,135,0.0,0.0,50,0.00,,,0.00,WUHU216HW,2013-07-04 02:52:00,
2013-07-03 21:57:00,71.5,52.4,29.98,SE,135,0.0,0.0,51,0.00,,,0.00,WUHU216HW,2013-07-04 02:57:00,
2013-07-03 22:02:00,71.1,52.0,29.98,SE,135,0.0,0.0,51,0.00,,,0.00,WUHU216HW,2013-07-04 03:02:00,
2013-07-03 22:07:00,70.7,52.2,29.99,SE,135,0.0,0.0,52,0.00,,,0.00,WUHU216HW,2013-07-04 03:07:00,
2013-07-03 22:12:00,70.4,52.4,29.99,SE,135,0.0,0.0,53,0.00,,,0.00,WUHU216HW,2013-07-04 03:12:00,
2013-07-03 22:17:00,70.0,52.6,29.99,SE,135,0.0,0.0,54,0.00,,,0.00,WUHU216HW,2013-07-04 03:17:00,
2013-07-03 22:22:00,69.8,51.9,29.99,SE,135,0.0,0.0,53,0.00,,,0.00,WUHU216HW,2013-07-04 03:22:00,
2013-07-03 22:28:00,69.5,51.6,29.99,SE,135,2.4,3.5,53,0.00,,,0.00,WUHU216HW,2013-07-04 03:28:00,
2013-07-03 22:33:00,69.3,51.0,29.99,SSE,147,1.9,5.4,52,0.00,,,0.00,WUHU216HW,2013-07-04 03:33:00,
2013-07-03 22:38:00,69.3,51.0,29.99,SE,145,1.4,5.4,52,0.00,,,0.00,WUHU216HW,2013-07-04 03:38:00,
2013-07-03 22:43:00,69.3,51.0,29.99,SSE,154,1.0,3.5,52,0.00,,,0.00,WUHU216HW,2013-07-04 03:43:00,
2013-07-03 22:48:00,69.5,51.1,29.99,SSE,158,1.8,2.5,52,0.00,,,0.00,WUHU216HW,2013-07-04 03:48:00,
2013-07-03 22:53:00,69.5,51.1,29.99,SE,142,1.4,3.5,52,0.00,,,0.00,WUHU216HW,2013-07-04 03:53:00,
2013-07-03 22:59:00,69.7,51.8,29.99,SSE,158,1.2,3.5,53,0.00,,,0.00,WUHU216HW,2013-07-04 03:59:00,
2013-07-03 23:01:00,69.7,51.8,29.99,SSE,152,1.2,3.5,53,0.00,,,0.00,WUHU216HW,2013-07-04 04:01:00,
2013-07-03 23:06:00,69.8,52.4,29.99,SSE,158,1.8,4.0,54,0.00,,,0.00,WUHU216HW,2013-07-04 04:06:00,
2013-07-03 23:11:00,70.0,53.1,29.99,SE,141,2.2,4.3,55,0.00,,,0.00,WUHU216HW,2013-07-04 04:11:00,
2013-07-03 23:16:00,70.0,53.1,29.99,SSW,203,3.4,4.9,55,0.00,,,0.00,WUHU216HW,2013-07-04 04:16:00,
2013-07-03 23:21:00,70.2,54.3,29.99,South,183,1.4,4.9,57,0.00,,,0.00,WUHU216HW,2013-07-04 04:21:00,
2013-07-03 23:26:00,70.2,54.3,29.99,South,180,1.4,4.9,57,0.00,,,0.00,WUHU216HW,2013-07-04 04:26:00,
2013-07-03 23:31:00,70.2,55.3,29.99,SW,225,1.2,3.5,59,0.00,,,0.00,WUHU216HW,2013-07-04 04:31:00,
2013-07-03 23:36:00,70.2,55.3,29.99,South,187,1.3,2.9,59,0.00,,,0.00,WUHU216HW,2013-07-04 04:36:00,
2013-07-03 23:41:00,70.4,55.9,29.99,SSW,203,1.2,2.9,60,0.00,,,0.00,WUHU216HW,2013-07-04 04:41:00,
2013-07-03 23:46:00,70.4,55.9,29.99,SW,225,2.0,2.9,60,0.00,,,0.00,WUHU216HW,2013-07-04 04:46:00,
2013-07-03 23:51:00,70.4,56.3,29.99,SW,225,1.4,2.9,61,0.00,,,0.00,WUHU216HW,2013-07-04 04:51:00,
2013-07-03 23:56:00,70.4,56.3,29.99,SW,225,1.2,2.9,61,0.00,,,0.00,WUHU216HW,2013-07-04 04:56:00,